Newberry Springs, CA

6:38 PM PST on February 23, 2017 (GMT -0800)
Barstow-Daggett

Weather History for KDAG - August, 2014

Change the Weather History Date:

Sunday, August 10, 2014

  Actual Average Record
Temperature  
Mean Temperature 90 °F 88 °F  
Max Temperature 106 °F 104 °F 113 °F (1970)
Min Temperature 75 °F 73 °F 56 °F (1949)
Degree Days  
Heating Degree Days 0    
Cooling Degree Days 25    
Growing Degree Days 40 (Base 50)    
Moisture  
Dew Point 36 °F    
Average Humidity 17    
Maximum Humidity 29    
Minimum Humidity 7    
Precipitation  
Precipitation 0.00 in 0.01 in 0.41 in (1983)
Month to date precipitation 0.11  
Year to date precipitation 2.61  
Sea Level Pressure  
Sea Level Pressure 29.86 in    
Wind  
Wind Speed 10 mph (WSW)    
Max Wind Speed 17 mph    
Max Gust Speed -    
Visibility 10 miles    
Events      
T = Trace of Precipitation, MM = Missing Value Source: NWS Daily Summary

Daily Weather History Graph

Daily Weather History Graph

Search for Another Location

Airport or City:

Trip Planner

Search our weather history database for the weather conditions in past years. The results will help you decide how hot, cold, wet, or windy it might be!

Date:

Astronomy

Aug. 10, 2014 Rise Set
Actual Time 6:03 AM PDT 7:40 PM PDT
Civil Twilight 5:36 AM PDT 8:07 PM PDT
Nautical Twilight 5:04 AM PDT 8:40 PM PDT
Astronomical Twilight 4:29 AM PDT 9:14 PM PDT
Moon 7:34 PM PDT (8/10) 5:59 AM PDT (8/10)
Length of Visible Light 14h 31m
Length of Day
13h 36m
Full, 100% of the Moon is Illuminated
Aug 10
Full
Aug 17
Last Quarter
Aug 25
New
Sep 2
First Quarter
Sep 8
Full

Hourly Weather History & Observations

Time (PDT) Temp. Dew Point Humidity Pressure Visibility Wind Dir Wind Speed Gust Speed Precip Events Conditions
12:50 AM 81.0 °F 37.9 °F 21% 29.87 in 10.0 mi West 11.5 mph - N/A   Clear
1:50 AM 79.0 °F 37.0 °F 22% 29.86 in 10.0 mi WSW 10.4 mph - N/A   Clear
2:50 AM 77.0 °F 37.0 °F 24% 29.86 in 10.0 mi WSW 10.4 mph - N/A   Clear
3:50 AM 75.9 °F 37.0 °F 24% 29.86 in 10.0 mi West 11.5 mph - N/A   Clear
4:50 AM 75.9 °F 37.9 °F 25% 29.87 in 10.0 mi WSW 15.0 mph - N/A   Clear
5:50 AM 75.0 °F 41.0 °F 29% 29.88 in 10.0 mi WSW 13.8 mph - N/A   Clear
7:50 AM 81.0 °F 39.9 °F 23% 29.91 in 10.0 mi West 10.4 mph - N/A   Clear
8:50 AM 86.0 °F 35.1 °F 16% 29.92 in 10.0 mi West 5.8 mph - N/A   Clear
9:50 AM 88.0 °F 30.0 °F 12% 29.92 in 10.0 mi Calm Calm - N/A   Clear
10:50 AM 93.0 °F 32.0 °F 12% 29.92 in 10.0 mi Variable 5.8 mph - N/A   Clear
11:50 AM 99.0 °F 26.1 °F 8% 29.90 in 10.0 mi Variable 4.6 mph - N/A   Clear
12:50 PM 100.0 °F 26.1 °F 7% 29.88 in 10.0 mi NNE 9.2 mph - N/A   Clear
2:50 PM 102.0 °F 30.0 °F 8% 29.83 in 10.0 mi Variable 4.6 mph - N/A   Clear
3:50 PM 105.1 °F 34.0 °F 9% 29.80 in 10.0 mi North 5.8 mph - N/A   Clear
5:50 PM 100.0 °F 42.1 °F 14% 29.77 in 10.0 mi SSE 5.8 mph - N/A   Partly Cloudy
6:50 PM 100.9 °F 42.1 °F 13% 29.77 in 10.0 mi South 8.1 mph - N/A   Clear
7:16 PM 100.0 °F 37.0 °F 11% 29.87 in 10.0 mi WSW 12.7 mph - N/A   Mostly Cloudy
7:50 PM 97.0 °F 39.9 °F 14% 29.79 in 10.0 mi WSW 17.3 mph - N/A   Clear
8:50 PM 93.0 °F 43.0 °F 18% 29.83 in 10.0 mi WSW 12.7 mph - N/A   Clear
10:50 PM 88.0 °F 41.0 °F 19% 29.87 in 10.0 mi West 9.2 mph - N/A   Clear
11:50 PM 88.0 °F 39.9 °F 18% 29.87 in 10.0 mi SW 12.7 mph - N/A   Clear